Showing default

METHANESAT, 59101

Orbit data source: Space-Track

METHANESAT, 59101 is a payload satellite owned by MethaneSAT (US) in SSO that was launched on Mon, 04 Mar 2024 UTC via an FALCON 9 launch vehicle from the Air Force Western Test Range (AFWTR). Payload-class satellites include a variety of spacecraft equipped with specific instruments for various scientific and technological missions. These include communications satellites like Starlink; space stations such as the ISS; scientific satellites like the Hubble; Earth observation satellites from companies like Planet Labs, Umbra, and HawkEye 360; GPS; miniature CubeSats for education and research; and military/defense satellites.

Loading next visibility...
Identifier
59101, 2024-043D
Orbit
SSO
Country
Flag of USUS
Related business
Manufacturer
Blue Canyon
Mission
Non-operational Amateur Earth Obs Sci
Bus & Motor
SATURN X-SAT, NANO-R3
Mass
362 kg wet, 326 kg dry
Launch date (UTC)
2024-03-04 (2 years ago)
Launch vehicle
FALCON 9
Launch site
Air Force Western Test Range (AFWTR)
Object type
Payload
Rocket body
Debris
Shape & HBR
Box + 2 Pan, 5.5 m
Radar Cross Section
2.251 m², Large (>1 m²)

Expand to show TLE details & history
Last TLE update: 10 hours ago

TLE from 10 hours ago
0 METHANESAT
1 59101U 24043D   26208.80108487  .00001971  00000-0  17071-3 0  9990
2 59101  97.8511 340.0610 0008792 229.2820 130.7639 14.98283488130732
Epoch: 2026-07-27T19:13Z
TLE epoch observation values (Epoch: 2026-07-27T19:13:33.732Z)
Latitude
-0.00005°
Longitude
106.19101°
Altitude
579.241 km
Speed
7.569 km/s
True Right ascension
22h 40m 14s
True Declination
0° 00' 00"
Sunlit
Object was in full shadow at epoch
Visualization orbit readout
Latitude
Unknown
Longitude
Unknown
Altitude
Unknown
Speed
Unknown
Apparent Right ascension
Unknown
Apparent Declination
Unknown
Sunlit
N/A
Visualization observer readout
Local Sidereal Time
18:09:17
Azimuth
Unknown
Elevation
Unknown
Doppler factor
Unknown
Orbital elements
Apogee altitude
575.322 km
Perigee altitude
563.106 km
Semi-major axis
6,947.351 km
Eccentricity
0.00088
Inclination
97.8511°
RAAN
340.061°
Arg. of periapsis
229.282°
True anomaly
130.84015°
Mean anomaly
130.7639°
Eccentric anomaly
130.80203°
Mean motion
3.74813 °/min
Orbital period
96.05 mins
BSTAR
0.00017071
Loading maneuver chart data...
Computing Atmospheric mass density...

Documentation

Showing up to 5 results
|